Theta_e
301 301 301 301 300 300 299 300 300 300 299 295 294 297 295 296 293 303 308 314 310 303 295 299 297 295 298 303 299 301 298 298 298 297 297 296 299 297 296 296 295 296 295 295 294 294 290 293 291 293 294 295 296 292 292 295 298 299 294 296 295 293 286 285 286 291 293 295 297 293 293 294 291 293 293 289 286 289 286 285 286 283 283 282 282 279 283
301 301 300 300 300 299 299 299 299 299 299 295 296 296 295 296 296 300 306 310 310 299 289 290 292 295 299 299 298 301 299 297 296 296 297 297 296 295 295 295 297 295 296 293 292 295 286 292 292 291 293 292 293 291 293 296 295 295 292 291 295 287 288 286 281 282 285 288 290 290 290 292 287 288 291 290 290 290 289 288 285 279 281 283 280 275 283
300 300 300 300 300 299 299 299 298 299 299 299 298 294 296 295 294 296 300 304 303 295 298 294 293 294 294 295 294 295 297 299 298 298 296 299 298 296 295 296 297 295 296 294 294 293 291 287 294 293 293 294 291 289 291 292 291 291 293 294 291 289 286 285 278 275 274 274 276 279 283 285 288 289 288 289 288 288 287 282 284 279 283 285 281 280 287
300 300 300 300 299 299 299 298 298 299 299 299 297 293 292 290 284 294 295 297 297 297 299 297 295 293 293 291 293 295 293 296 297 300 297 299 298 298 297 296 297 294 293 291 291 291 294 290 288 291 290 292 292 289 291 292 293 292 292 290 293 287 287 287 285 281 279 282 285 290 290 287 283 285 287 287 289 288 286 284 280 277 281 280 283 283 284
301 301 301 300 300 300 300 298 298 300 298 299 295 291 292 291 286 289 287 294 294 292 296 294 295 291 296 288 293 290 292 294 294 300 292 297 297 297 296 294 292 291 292 289 289 292 291 293 290 290 290 292 294 289 291 289 290 291 291 292 290 287 285 286 286 285 286 288 287 289 289 285 285 284 284 287 286 286 284 281 279 285 280 275 284 285 283
301 301 300 300 300 300 300 300 299 299 299 301 296 288 291 286 287 289 291 289 288 289 288 293 292 293 294 291 295 291 289 291 289 293 295 294 295 293 293 293 294 293 291 290 286 289 289 290 286 290 290 290 291 290 289 288 288 289 290 291 289 285 282 285 286 285 287 288 287 288 286 285 285 285 284 283 285 284 281 281 284 284 279 276 282 284 283
301 301 301 301 300 300 300 300 299 299 300 299 295 288 287 288 287 287 290 286 285 287 288 288 290 290 292 290 292 290 290 289 292 292 291 292 291 294 286 290 291 292 292 290 286 287 283 283 288 286 286 285 286 286 287 287 286 287 286 287 288 285 282 284 284 282 283 284 285 286 284 283 283 283 283 284 283 282 283 282 283 282 281 283 283 283 283
301 302 302 301 301 301 300 300 301 301 299 298 291 289 287 285 287 284 286 285 284 283 284 286 287 287 291 286 289 290 289 288 291 291 290 286 289 294 289 289 284 285 285 287 285 287 287 286 284 286 283 283 285 282 285 285 286 285 284 286 287 286 280 284 280 280 280 283 284 284 283 282 279 281 281 281 281 281 281 281 282 282 281 282 281 281 280
301 301 302 302 302 302 302 301 301 300 299 293 290 287 289 289 290 290 286 285 283 282 284 285 286 286 287 286 288 290 289 288 290 288 289 288 288 289 286 285 284 283 284 285 285 288 284 284 284 284 284 282 285 283 283 286 281 283 282 284 283 284 278 283 279 277 276 280 280 281 281 279 278 277 278 279 279 277 279 279 282 280 278 281 281 279 279
301 301 301 301 301 302 301 301 301 300 300 293 290 285 290 288 289 290 289 282 286 282 283 282 284 281 286 287 288 287 286 285 289 286 287 285 287 286 285 285 285 284 285 285 286 287 286 285 286 286 285 286 285 285 284 285 283 281 281 284 281 282 280 277 277 274 273 278 280 278 276 275 272 274 277 279 280 281 282 283 284 283 282 278 276 277 283
300 300 300 300 300 301 301 301 301 301 298 292 291 288 289 288 287 288 288 280 280 283 283 282 282 283 283 283 284 284 283 285 286 283 284 283 283 285 285 283 282 282 283 286 289 288 287 287 287 287 285 284 283 284 284 284 285 284 282 281 281 282 280 277 280 272 273 277 275 275 272 266 269 280 283 282 279 280 278 278 280 282 283 280 282 281 280
300 300 300 300 300 300 301 301 301 301 298 296 295 292 291 291 290 289 285 278 279 282 282 280 282 282 282 282 282 281 282 282 282 284 284 284 285 284 283 282 283 279 287 288 288 287 287 288 287 286 285 284 284 284 284 282 283 285 285 282 280 279 279 278 279 274 272 274 271 271 265 267 277 281 283 282 281 281 280 280 282 282 280 279 280 280 280
301 300 300 300 300 300 300 300 301 301 301 296 296 291 291 292 291 288 285 281 276 280 278 279 280 281 282 281 280 281 281 281 282 283 282 281 281 282 283 282 282 284 288 287 287 284 280 278 280 281 280 282 282 283 282 282 282 284 284 284 281 278 278 278 275 276 273 272 270 264 265 274 275 279 281 283 282 281 280 278 281 280 281 282 281 282 281
302 302 301 301 301 301 301 300 300 302 301 298 295 294 292 292 289 287 285 280 278 281 281 280 279 279 280 281 281 280 281 280 281 281 278 282 280 281 283 286 285 287 287 287 283 282 277 279 273 274 275 275 274 273 277 280 282 282 282 283 283 281 279 278 273 277 269 271 270 269 274 273 275 276 279 279 278 279 277 273 278 281 281 282 281 282 281
302 301 302 302 302 302 302 301 302 301 302 300 297 295 293 293 294 290 288 285 277 281 281 276 280 280 281 280 280 279 279 279 279 278 280 281 279 283 284 285 285 286 286 284 279 281 276 271 267 268 268 267 264 266 274 270 277 277 278 280 282 282 276 277 273 269 276 268 268 268 268 264 270 277 280 281 280 281 280 278 274 279 276 278 279 279 279
301 301 302 302 301 302 301 301 301 301 301 301 297 295 293 294 294 294 290 284 281 274 279 282 284 281 279 279 280 278 278 278 278 278 278 279 279 282 283 283 284 285 285 282 280 275 271 269 266 266 265 264 266 264 266 272 270 275 277 278 277 279 280 277 275 271 273 270 267 266 265 267 276 275 278 278 278 279 280 276 271 276 274 274 276 277 279
301 301 301 302 302 302 302 301 301 301 301 301 296 295 293 295 293 291 288 285 283 277 284 284 284 283 279 279 280 278 280 278 280 275 275 277 278 277 279 281 283 284 283 280 279 274 271 266 264 265 266 264 262 267 266 267 264 269 274 275 274 274 276 275 271 270 271 270 268 266 271 269 274 275 277 278 280 281 278 267 268 274 276 278 277 277 278
301 301 301 301 301 302 302 301 301 301 301 301 298 294 294 295 295 291 289 285 281 281 285 285 282 280 279 280 280 281 281 279 279 278 278 275 273 277 277 277 278 282 285 276 275 272 271 268 267 268 267 272 270 270 265 269 259 268 270 274 271 272 271 273 269 270 270 271 269 271 271 277 279 279 281 280 281 278 268 265 273 277 278 279 279 279 279
301 301 301 302 302 301 301 301 302 302 301 301 299 296 294 295 295 294 291 286 283 279 286 287 288 284 285 287 282 283 282 282 281 277 275 275 277 275 276 276 281 274 281 274 274 271 271 269 268 266 267 269 270 266 270 266 268 270 270 269 267 267 267 269 272 269 269 270 268 268 272 278 280 282 281 280 276 267 268 275 277 278 278 279 279 278 279
301 301 301 301 302 301 302 302 301 301 302 302 298 292 295 296 295 294 289 285 286 283 286 284 286 283 286 283 280 280 279 281 282 280 277 275 277 276 279 275 279 274 274 277 271 275 270 269 270 268 267 270 269 272 267 267 271 269 270 272 271 271 268 268 269 270 271 270 267 266 262 274 277 278 277 280 272 275 278 278 280 280 279 279 278 279 279
301 301 300 301 301 301 301 302 301 301 301 302 299 294 292 296 295 294 295 291 286 282 284 289 288 287 288 286 287 286 284 281 281 279 281 281 281 279 271 272 277 275 272 275 269 272 271 268 268 268 271 272 271 270 267 264 266 274 274 272 272 276 269 270 271 274 267 267 265 265 273 277 280 278 274 278 279 281 281 280 278 281 281 280 279 280 280
301 301 301 301 300 300 301 301 301 301 301 301 300 295 290 294 295 295 293 291 287 284 285 290 290 289 291 291 291 290 288 288 288 288 283 280 281 281 279 273 271 274 273 273 270 267 268 266 267 265 268 269 270 269 265 267 267 269 267 271 267 276 272 274 270 275 271 269 273 276 278 278 280 280 280 281 282 282 282 281 280 279 280 281 279 279 280
301 301 300 301 301 300 300 300 301 300 301 302 300 293 290 293 293 296 289 286 288 289 290 288 290 289 291 292 293 292 292 293 291 290 288 283 280 282 280 278 276 279 276 279 277 277 274 269 270 273 268 271 271 268 264 270 269 269 269 276 275 279 279 279 274 273 278 279 278 280 279 280 280 281 281 281 281 282 282 281 279 280 281 281 279 280 280
301 301 301 301 301 301 300 300 300 301 301 301 299 293 292 294 294 291 288 287 285 282 285 287 284 282 284 285 290 292 291 290 291 291 292 289 280 279 283 283 284 278 277 279 283 278 274 273 274 274 271 274 272 271 268 267 269 272 271 272 275 277 278 274 273 276 273 268 278 278 278 280 280 280 282 283 282 281 281 280 280 280 281 280 280 279 279
300 301 301 300 300 299 300 301 300 300 300 300 299 297 293 290 293 292 286 281 281 281 277 282 283 287 290 293 294 291 292 292 293 291 290 289 286 281 280 284 285 281 280 282 280 277 275 273 273 272 270 275 275 270 276 271 271 276 269 272 274 273 280 274 275 274 272 272 276 278 280 280 281 280 280 280 281 282 282 282 281 281 280 279 278 277 277
300 300 299 299 299 300 300 299 299 299 300 300 299 292 290 290 293 294 290 289 286 283 277 277 282 289 290 290 287 291 293 292 291 290 289 290 290 288 286 286 284 287 285 284 281 278 276 275 277 276 273 273 280 273 273 276 275 278 273 273 278 277 277 270 275 273 275 277 278 278 279 279 280 280 281 281 281 281 281 281 280 278 277 276 275 275 275
299 299 299 300 300 300 299 299 299 299 300 300 297 293 292 293 294 291 288 287 283 278 280 277 282 282 283 286 290 290 292 291 291 290 289 290 289 289 288 286 283 283 283 281 281 280 277 276 275 273 276 275 280 277 277 275 275 273 272 276 279 276 272 276 274 271 271 272 275 278 272 272 277 280 281 281 282 281 280 279 276 276 275 274 273 272 272
299 299 298 299 299 299 300 299 299 299 300 299 297 291 291 291 292 294 294 291 285 280 279 276 279 280 286 279 287 290 290 291 290 289 289 289 289 288 286 285 284 281 280 279 275 276 275 273 273 278 279 278 276 274 278 278 278 275 274 276 279 275 276 276 272 271 271 277 278 279 279 278 279 280 281 280 278 278 278 278 277 273 272 271 271 271 270
298 298 299 299 299 298 299 299 299 299 299 298 288 286 287 290 293 294 294 293 289 285 283 283 282 279 277 281 286 287 289 290 289 288 288 288 287 287 285 284 283 282 282 281 280 278 276 276 280 277 276 281 277 274 275 271 271 269 274 278 279 280 281 279 278 278 279 280 280 281 279 277 279 281 279 276 274 276 277 274 272 271 270 269 269 269 269
298 298 299 298 298 299 298 299 299 298 299 293 287 286 283 285 291 292 294 294 291 287 280 278 275 279 283 281 280 283 285 288 288 287 286 286 285 285 285 284 283 284 282 280 280 276 279 278 280 281 281 284 276 275 272 273 271 273 279 280 280 281 281 281 281 279 277 281 281 281 281 281 280 276 273 272 270 272 274 272 270 269 268 268 267 267 268
297 298 298 298 298 299 298 298 299 299 298 287 285 280 278 277 286 293 295 294 293 287 282 282 278 283 278 281 280 282 284 285 285 285 285 286 286 286 286 285 284 284 280 280 280 279 280 277 278 279 282 281 280 274 272 272 270 273 278 279 280 280 280 280 282 282 281 281 282 282 279 278 275 273 271 269 269 269 269 268 268 267 266 266 266 266 266
297 297 297 298 298 298 298 298 298 298 294 287 284 284 285 286 289 292 294 294 291 285 280 277 276 277 277 281 280 280 284 285 285 285 285 286 283 286 285 284 281 284 283 280 281 280 278 280 279 279 279 281 281 274 274 272 271 272 278 279 281 281 281 280 281 281 282 282 280 277 277 278 276 275 275 269 268 268 267 267 265 264 263 264 264 264 264
297 297 297 297 298 298 298 297 298 297 292 292 294 295 292 294 295 295 295 291 288 284 285 279 274 276 274 275 275 275 282 281 281 283 280 285 282 284 280 283 283 282 286 281 278 276 281 280 281 277 280 283 277 275 272 272 273 278 279 280 280 281 281 281 281 281 279 276 277 276 276 277 274 269 267 267 266 265 265 264 263 262 262 261 260 262 262
297 297 297 297 296 297 298 298 298 296 296 290 284 287 288 293 295 295 291 288 285 285 284 278 275 274 274 276 272 276 283 280 278 281 277 283 284 282 279 281 281 278 281 278 280 279 280 280 277 278 280 277 279 273 269 273 278 279 280 280 281 281 281 281 279 276 273 270 268 270 269 267 266 266 266 265 264 263 263 262 260 259 259 260 261 261 261
296 297 296 296 297 297 297 296 293 290 285 287 287 289 292 295 295 294 291 286 280 279 278 278 278 274 273 272 272 275 280 280 277 280 277 280 284 279 280 276 279 274 277 284 278 278 276 277 280 276 272 278 275 271 273 276 278 279 279 279 280 280 277 274 276 274 268 265 265 265 265 265 265 265 265 264 263 262 261 260 260 259 259 260 260 260 260
295 295 296 296 296 295 292 291 289 286 283 284 285 291 295 296 296 292 290 287 284 279 277 277 277 274 275 271 271 275 282 278 279 280 279 278 277 281 280 278 273 277 282 278 274 278 276 281 277 272 277 272 271 274 276 278 278 279 280 279 280 280 279 278 278 266 263 261 262 263 262 263 265 265 263 263 261 260 260 259 259 259 258 259 259 259 258
296 295 295 295 292 287 284 285 289 287 286 290 291 295 296 295 290 289 286 284 284 284 279 278 274 275 276 274 275 275 279 272 279 275 276 274 274 277 277 275 272 278 276 275 276 274 278 283 276 273 273 271 274 279 279 280 279 279 279 280 277 272 270 265 265 264 261 259 260 261 262 261 261 261 261 262 261 259 257 257 257 256 255 255 255 254 255
296 295 290 287 283 280 280 284 284 288 295 293 293 289 287 287 280 282 281 279 282 283 278 278 275 276 278 276 271 279 278 274 278 273 272 274 274 270 275 275 275 277 268 272 275 281 278 276 273 272 273 278 279 279 280 280 281 278 274 269 266 266 265 263 263 264 261 261 262 260 258 258 259 261 261 260 259 258 258 257 256 256 255 255 254 255 254
292 288 285 283 281 280 281 282 291 295 292 290 287 282 279 281 279 275 275 278 279 274 279 277 274 277 277 275 276 281 278 275 273 274 270 276 273 269 274 268 276 276 271 270 273 280 271 272 273 273 271 275 276 278 279 276 267 263 264 264 263 262 262 261 263 265 267 268 266 263 263 264 264 262 259 257 257 257 256 256 255 255 254 254 254 253 253
285 282 281 280 280 283 288 290 296 291 287 282 281 280 274 278 276 271 277 272 273 275 277 272 279 278 279 276 274 273 281 276 271 271 272 273 278 271 272 270 274 272 267 268 271 277 271 268 270 270 270 275 276 279 273 267 264 260 260 260 260 260 260 259 258 257 257 257 257 257 256 256 256 257 256 256 255 254 254 253 253 253 252 252 253 252 252
285 282 281 280 281 281 285 287 284 282 281 277 275 274 273 271 273 273 273 271 271 269 274 275 278 276 279 279 277 273 281 279 274 277 276 271 277 273 268 267 276 269 267 267 272 269 267 263 263 266 270 275 277 270 262 261 259 256 256 256 257 257 257 256 255 255 255 254 253 253 252 252 252 252 252 252 252 252 251 252 252 252 252 252 252 252 254
285 285 284 282 279 284 286 283 282 278 276 277 273 270 272 271 272 269 272 269 270 270 269 275 274 275 275 278 276 278 275 275 274 277 275 270 276 270 267 266 269 267 265 270 268 266 266 265 265 265 269 271 267 255 259 257 255 254 255 255 255 255 255 254 253 253 253 253 252 253 252 252 251 251 251 251 251 251 252 251 251 251 251 252 252 252 253
289 284 283 278 281 280 281 276 277 276 271 270 268 266 269 265 268 269 269 271 270 269 270 271 272 279 276 277 274 275 276 278 275 273 273 270 277 273 268 267 265 264 268 265 265 263 262 263 262 269 272 269 257 255 256 255 255 255 255 255 255 255 254 254 253 253 253 253 252 252 251 250 251 251 250 249 249 249 249 250 250 250 251 251 251 251 251
284 284 280 277 276 278 278 269 276 270 269 269 268 265 266 264 268 268 265 269 268 268 272 272 273 274 271 275 275 274 274 277 278 271 270 273 270 267 267 263 266 270 268 264 263 263 265 263 268 271 265 256 251 254 254 253 254 254 253 253 253 254 254 254 254 253 253 253 252 252 251 251 250 250 249 248 248 248 249 249 250 250 250 250 250 250 251
280 276 275 274 272 276 273 267 275 270 267 268 271 267 268 266 269 269 269 271 272 273 275 275 275 274 273 270 271 273 277 270 277 272 268 271 267 269 266 266 266 265 265 264 261 260 259 260 266 262 263 257 254 253 253 253 253 253 252 252 253 253 253 253 253 252 252 252 251 250 250 250 250 251 250 249 249 249 249 249 250 250 250 250 250 250 251
277 275 273 269 267 272 270 267 267 264 268 270 268 267 269 271 271 271 270 268 270 270 272 273 274 273 268 267 272 271 270 270 270 270 271 270 266 265 268 267 267 264 262 261 258 261 265 269 269 270 264 259 253 253 252 252 251 251 251 251 251 251 250 250 250 250 251 251 251 251 251 251 250 250 251 251 250 249 249 249 250 250 251 250 249 249 249
277 276 272 271 268 270 270 266 267 267 267 266 267 270 272 272 270 269 266 266 272 271 273 273 274 272 270 267 267 267 266 268 268 271 271 266 265 267 271 266 263 263 261 261 259 260 262 267 269 260 253 254 252 251 250 250 250 250 251 250 250 250 250 250 250 250 251 251 251 251 250 250 250 250 250 250 250 249 250 250 250 250 250 249 249 249 249
273 275 273 267 265 269 266 269 265 261 260 263 262 258 259 261 268 267 265 263 272 273 272 272 270 270 269 269 270 270 267 266 267 268 270 268 268 263 264 262 262 262 261 261 265 266 267 269 260 253 253 252 251 250 249 249 249 249 250 250 250 249 249 249 248 249 249 248 248 249 249 249 248 249 249 249 249 250 250 249 249 249 248 248 248 248 248
274 272 270 269 267 267 264 263 266 269 264 260 258 261 264 268 270 267 262 261 270 273 274 273 271 271 267 270 269 270 266 270 265 266 268 266 264 262 262 259 258 257 261 263 267 269 266 259 252 251 250 250 251 251 250 250 249 248 248 248 248 249 249 249 249 248 248 248 248 248 249 250 250 250 250 249 248 249 250 249 248 248 248 247 247 248 248
270 266 263 262 263 264 263 263 266 266 262 261 263 265 264 267 266 263 264 266 268 271 274 276 275 272 268 267 264 267 266 268 267 268 265 264 264 263 262 257 258 260 264 263 263 258 252 251 251 250 250 250 250 250 249 249 249 249 248 249 248 248 248 248 248 248 249 249 249 248 248 248 248 249 248 249 249 250 249 248 247 247 247 247 247 247 247
268 267 263 261 264 265 266 265 266 265 263 264 265 265 265 268 267 265 265 266 269 271 269 268 270 267 267 266 265 263 264 268 266 266 265 264 263 262 263 263 264 265 266 257 254 253 252 252 252 251 249 250 250 249 249 249 249 250 249 249 249 248 248 248 248 248 248 249 248 248 247 247 248 248 249 248 247 246 245 246 247 247 247 247 247 247 247
267 265 264 261 259 259 261 264 264 264 265 264 266 262 265 264 263 263 265 268 271 271 269 265 266 265 264 264 266 265 265 265 264 263 261 263 261 260 258 265 269 265 259 254 253 252 251 250 250 250 250 250 249 248 248 247 245 244 244 244 243 245 246 246 247 247 247 246 246 245 246 246 246 245 244 245 244 244 244 246 249 248 248 249 250 250 250
Wind_Speed
5 3 4 3 1 1 1 4 4 8 8 2 1 1 4 4 1 2 1 10 14 12 9 7 6 7 3 5 2 2 2 2 1 2 0 1 2 1 2 6 7 6 9 7 6 5 7 6 7 5 7 10 5 4 4 1 1 1 3 2 0 3 2 4 9 9 9 11 1 4 1 2 3 6 3 1 4 4 7 8 5 8 5 9 7 11 3
4 3 2 3 2 2 3 2 2 4 5 1 1 3 4 2 2 1 3 3 11 9 10 10 11 7 7 7 9 1 2 1 1 3 2 4 2 4 2 1 6 6 1 2 6 3 3 4 9 7 0 3 4 5 6 5 2 1 2 2 3 2 3 3 4 5 4 4 3 2 3 2 1 2 2 3 7 10 8 5 1 6 8 12 11 12 3
5 4 4 4 3 0 2 2 2 3 4 0 1 3 2 2 1 1 2 4 4 11 5 7 9 11 14 12 14 13 8 3 8 6 6 2 3 1 3 6 3 4 1 1 1 3 9 3 1 4 3 2 3 2 3 3 2 2 2 4 1 2 2 3 8 8 7 8 8 7 4 2 3 3 2 1 1 4 6 6 5 10 5 15 13 11 7
7 7 6 5 4 3 2 1 1 2 3 3 1 1 2 2 5 2 1 1 1 3 1 1 7 9 10 10 12 12 12 7 1 6 7 8 3 7 6 1 2 6 4 5 7 8 4 7 2 1 3 1 1 2 1 1 3 5 6 4 3 1 1 4 9 12 12 12 8 1 2 5 9 5 6 12 11 7 7 10 10 12 10 12 9 11 12
8 8 7 6 6 5 6 3 1 4 1 3 2 1 1 1 3 4 5 2 3 2 1 2 4 6 7 5 4 12 15 11 5 5 5 3 8 4 7 6 5 4 8 10 11 11 11 9 10 13 11 4 1 2 0 2 3 2 0 0 3 2 7 10 11 13 15 16 16 15 12 12 13 13 14 11 10 10 12 13 17 9 13 15 7 15 13
5 5 6 6 6 5 5 5 5 4 4 2 1 0 1 2 1 3 2 2 6 7 5 6 4 2 5 7 1 8 8 7 8 2 1 3 0 6 2 5 11 11 10 4 5 4 6 5 5 4 5 5 2 2 1 1 4 1 2 1 3 3 10 7 11 10 14 15 16 12 11 9 11 15 15 16 15 14 16 15 15 15 14 17 15 20 19
9 7 7 9 9 8 7 6 4 2 3 3 0 3 2 1 1 1 3 3 2 1 2 3 5 6 7 4 6 12 11 11 6 3 1 2 1 4 6 6 3 7 6 6 5 6 7 5 3 3 1 1 1 2 2 3 4 3 1 0 0 1 6 8 6 9 8 12 11 11 11 10 11 13 13 12 14 18 18 19 16 15 17 18 20 22 26
9 9 9 8 9 8 7 6 6 7 7 3 2 1 1 1 2 2 3 5 3 2 2 1 2 6 6 3 9 6 9 13 4 2 2 6 5 2 6 6 3 0 2 1 3 3 3 4 9 1 1 4 2 2 4 1 1 1 2 1 3 4 6 5 0 6 8 10 11 8 6 9 11 10 10 13 15 17 16 17 18 17 19 21 22 23 22
10 10 10 10 10 8 9 7 9 7 4 2 1 0 1 1 2 1 4 2 2 3 1 2 2 4 5 7 6 4 8 11 3 4 4 3 7 1 4 4 2 2 3 4 7 3 4 3 4 1 2 5 2 1 1 5 1 1 1 0 3 3 4 5 2 6 7 4 9 10 6 8 11 11 15 19 18 16 13 14 12 14 15 17 18 15 14
11 11 11 11 10 10 10 9 9 8 5 3 0 2 1 1 1 0 1 2 3 4 2 2 3 6 2 3 2 2 2 2 2 3 2 6 5 4 5 2 2 1 5 8 5 4 5 5 2 2 2 2 3 2 3 2 2 1 2 1 1 1 0 1 4 8 8 7 7 6 3 8 12 14 19 18 16 17 18 17 16 18 18 14 12 13 2
13 12 12 11 12 11 11 11 9 11 5 3 2 1 2 2 3 2 1 3 1 4 4 3 6 1 5 1 3 3 2 2 4 7 4 5 4 5 4 2 1 2 4 1 4 6 4 3 4 4 5 7 7 7 8 8 8 8 4 3 3 4 6 7 4 8 5 12 5 1 3 13 15 1 3 9 14 11 15 14 15 11 5 4 3 1 3
14 13 12 12 12 12 13 13 12 12 9 3 2 2 2 2 3 2 2 5 2 3 5 3 5 3 5 2 3 2 3 1 2 4 3 3 3 1 3 1 3 3 2 5 4 2 1 3 3 5 7 9 10 11 11 13 12 10 10 9 7 8 8 10 6 8 7 1 4 8 14 15 3 3 2 1 2 4 12 15 15 5 1 2 4 5 5
16 15 15 15 15 15 14 13 13 15 12 4 4 4 2 1 2 2 2 2 2 5 4 3 0 2 4 6 3 2 2 3 2 1 1 2 3 3 3 3 5 2 5 4 4 1 2 4 6 7 10 9 8 11 14 16 15 14 13 14 11 9 9 7 3 7 2 3 7 10 9 2 5 7 3 2 3 9 10 13 13 6 8 8 7 6 5
14 13 14 15 16 16 15 14 14 17 16 9 6 4 4 3 4 2 3 3 2 3 3 1 2 3 6 6 4 2 3 2 2 2 3 4 6 5 5 3 0 2 1 3 1 1 2 2 4 2 2 1 2 4 9 11 13 15 15 15 13 14 6 3 8 6 9 7 11 17 7 13 12 11 6 5 6 4 5 7 3 7 5 7 6 6 7
16 17 16 14 14 14 15 13 12 14 19 14 6 3 5 4 4 3 1 2 2 2 5 5 6 9 9 5 5 4 4 3 2 4 2 1 2 4 3 2 1 0 0 2 1 1 2 1 1 3 2 1 3 3 3 1 2 3 4 6 9 10 12 7 7 4 8 6 9 8 7 8 2 1 0 0 1 2 2 2 5 5 2 2 3 3 3
16 16 17 17 17 17 17 17 17 14 15 16 6 5 6 6 4 4 2 2 2 1 7 11 5 6 6 5 8 8 5 4 4 1 2 3 4 1 2 1 0 2 4 4 1 3 0 2 3 2 4 3 2 3 3 3 3 2 5 1 3 5 10 6 10 8 6 7 9 10 9 6 3 4 3 2 2 0 2 0 7 2 7 3 4 3 4
17 16 17 17 17 17 18 18 18 18 16 16 8 5 6 8 8 6 5 2 3 5 4 5 8 5 4 3 3 4 5 4 5 2 2 3 2 1 4 1 0 3 5 4 2 2 0 1 1 1 3 2 1 4 1 0 1 2 3 6 7 3 4 6 7 10 10 10 10 11 5 5 1 4 1 2 3 4 1 11 7 3 7 6 4 6 6
18 18 17 17 17 17 17 18 19 19 19 17 9 8 5 7 10 6 4 5 7 6 5 8 12 7 8 6 4 3 5 2 2 0 1 1 2 2 2 1 2 3 2 2 2 2 4 3 5 5 4 2 3 2 4 3 1 2 2 1 2 2 2 6 10 11 11 13 10 7 8 6 5 8 6 7 3 2 5 14 1 6 7 7 7 6 8
19 19 18 18 18 18 18 19 18 19 19 20 10 6 6 8 9 9 4 5 7 7 6 11 11 8 2 4 3 4 3 3 4 3 1 1 2 3 5 1 1 2 3 5 1 5 6 4 2 0 2 2 3 5 0 1 3 2 2 2 1 2 2 3 3 8 10 11 12 11 10 4 4 4 4 7 4 4 12 1 4 3 6 7 8 7 10
20 20 20 19 19 19 19 18 19 19 19 20 11 8 5 9 11 13 9 7 5 10 8 12 11 13 8 9 6 4 2 2 4 4 3 4 1 4 2 2 1 4 0 5 3 3 3 6 5 1 2 4 3 3 1 4 0 5 2 2 3 3 3 5 6 3 3 4 7 8 9 0 3 4 5 5 4 5 2 2 4 6 5 4 6 9 9
18 17 19 21 20 20 20 19 19 20 20 22 16 7 6 9 12 12 11 9 6 8 10 8 7 14 11 13 15 13 13 10 9 7 6 3 4 3 4 4 6 4 5 6 8 6 5 4 3 4 2 2 3 3 4 1 4 5 4 4 3 1 4 5 4 4 5 7 7 6 3 3 4 6 4 4 7 3 4 4 11 10 5 3 4 5 6
20 21 21 20 21 21 21 21 21 19 20 21 17 7 8 7 10 9 9 4 7 10 1 4 10 12 14 15 12 11 15 16 14 10 5 4 5 10 2 4 5 4 2 3 2 1 1 2 2 2 4 3 0 6 2 2 7 1 4 1 4 8 10 7 9 3 5 6 5 1 1 1 4 5 6 7 8 8 9 7 8 8 7 3 4 8 8
21 22 24 21 21 22 22 22 21 20 21 20 14 7 9 7 9 8 7 5 4 4 0 2 1 5 4 7 6 8 13 11 10 8 9 7 6 8 7 5 6 2 1 5 7 4 4 6 6 3 0 3 8 3 1 6 5 2 3 7 6 4 6 3 2 4 6 8 9 4 7 10 9 8 8 11 12 11 8 7 7 6 7 6 7 8 9
22 22 21 22 23 23 24 22 23 21 22 23 17 8 8 8 9 6 3 5 5 6 7 7 4 9 13 16 13 8 9 11 13 13 10 10 10 5 3 6 2 2 2 5 2 3 3 2 2 3 6 5 4 6 7 7 9 5 5 8 4 11 7 3 6 8 6 8 9 10 14 12 11 13 9 8 8 9 8 7 8 8 8 6 5 6 8
23 22 22 23 24 25 22 21 22 22 23 24 19 9 4 2 7 11 9 6 6 7 8 3 14 15 11 9 8 13 14 12 9 13 12 11 10 8 10 10 11 11 12 8 3 3 1 4 3 2 10 5 7 8 7 6 7 11 8 11 5 8 8 9 13 12 11 14 18 16 12 13 14 12 11 12 11 10 9 7 6 7 5 2 1 1 3
23 22 23 24 23 22 21 22 24 23 22 21 16 8 10 10 9 10 7 4 1 1 7 8 5 3 3 8 12 13 10 12 12 14 16 14 14 14 13 3 6 9 6 5 5 8 6 5 5 5 6 6 9 8 9 11 7 7 10 13 12 4 7 4 5 9 11 15 18 18 16 17 16 14 11 10 11 11 12 8 4 3 3 2 2 2 1
22 22 24 21 22 23 24 24 25 25 24 23 15 8 9 7 11 14 11 9 5 5 7 7 3 1 0 9 4 5 7 11 12 15 16 18 17 14 12 12 8 6 8 3 3 5 3 6 7 10 8 5 5 7 7 5 9 6 8 16 9 5 11 6 3 9 11 12 14 10 7 10 12 12 11 11 9 8 8 3 3 4 3 2 2 2 1
21 22 23 22 23 24 21 20 22 24 24 24 16 7 6 8 11 12 10 9 12 6 2 2 1 2 2 2 5 7 8 12 14 14 15 16 18 14 16 16 12 3 3 6 2 5 6 8 10 4 2 1 4 7 9 7 6 7 12 15 10 14 14 9 11 11 13 15 15 12 12 15 16 15 1 3 3 4 6 7 5 4 2 1 1 1 2
23 22 23 22 21 23 23 23 23 24 24 20 4 6 4 8 8 11 12 11 8 5 4 1 2 1 4 3 4 6 6 9 10 12 13 14 16 14 12 11 12 10 9 8 7 5 7 9 6 5 4 6 6 6 6 7 8 9 14 17 16 17 13 14 15 16 18 17 15 11 8 11 13 10 1 4 2 4 5 2 3 3 3 2 1 1 2
22 21 20 23 22 22 24 24 24 24 23 5 6 2 2 4 7 12 12 11 10 4 5 4 5 4 1 2 3 4 7 9 10 11 13 11 11 12 12 11 11 10 8 9 9 8 8 6 7 8 6 9 6 2 5 5 8 10 16 18 16 13 11 12 13 15 16 17 15 13 11 11 4 2 2 3 2 1 3 4 4 4 3 2 1 2 2
22 22 22 22 23 22 23 25 23 24 20 4 5 4 5 6 11 14 18 12 11 7 2 3 6 1 1 2 2 7 10 9 10 10 13 11 11 12 10 9 8 8 8 9 9 11 5 4 6 8 8 12 9 6 6 6 8 9 19 18 16 14 13 15 13 14 16 16 15 12 4 4 3 2 2 4 4 4 3 4 4 3 3 1 1 2 2
23 23 23 23 22 22 23 26 25 22 11 9 10 9 3 4 3 13 20 14 11 5 4 4 2 1 3 2 2 1 7 8 7 6 5 6 9 9 8 9 7 9 9 8 7 3 7 6 7 8 8 12 12 3 4 8 11 14 17 12 11 11 11 12 13 14 13 13 10 10 11 11 8 9 4 7 6 4 4 5 4 3 2 1 1 1 2
21 22 23 24 23 24 24 25 25 18 8 11 10 6 6 6 11 18 18 12 7 3 3 3 5 2 2 3 1 1 3 3 3 6 5 7 6 6 4 5 6 6 9 7 6 5 3 6 8 11 11 7 4 3 6 9 12 19 17 12 10 9 13 14 14 11 9 4 7 14 13 10 2 5 7 7 5 5 5 4 3 1 1 1 1 2 2
23 22 21 22 24 23 21 22 22 23 16 5 3 12 8 4 12 21 14 8 3 1 3 4 4 5 3 2 1 2 8 7 6 8 4 6 5 6 6 5 7 4 6 9 3 2 2 4 10 8 4 7 7 4 5 11 20 18 14 12 12 13 11 13 10 10 6 3 0 2 4 5 6 6 6 6 6 5 4 3 2 2 0 1 2 1 1
24 22 20 20 21 22 21 20 11 7 8 7 7 5 10 18 18 24 20 9 5 4 3 3 3 6 3 2 5 3 4 4 6 9 7 3 6 6 5 4 5 6 5 5 4 7 8 8 6 5 8 3 5 5 8 13 13 13 14 14 15 15 8 6 10 8 4 2 2 2 3 4 6 5 5 5 5 5 3 2 2 3 1 2 2 2 1
22 22 21 19 20 17 8 7 7 7 5 7 7 9 22 21 23 17 16 6 3 5 6 5 6 8 7 8 7 3 6 2 2 4 3 3 0 2 3 4 5 6 3 6 6 8 10 6 4 7 6 6 10 11 12 8 11 15 16 16 14 12 12 14 10 6 5 4 3 3 3 2 4 4 4 4 5 3 2 1 2 1 2 2 2 2 3
19 20 20 16 4 1 6 5 3 6 6 5 7 14 21 16 4 7 5 2 2 1 4 6 6 9 11 6 2 2 7 5 4 3 4 4 4 2 4 3 6 2 3 4 6 10 11 7 6 10 10 11 12 10 11 12 12 14 17 16 9 5 4 3 6 10 7 4 4 2 2 2 2 2 4 4 4 3 1 2 2 1 1 2 3 3 3
17 15 7 3 4 5 3 6 4 5 14 19 15 7 7 8 2 4 1 3 2 4 3 2 11 2 2 5 4 7 6 3 3 6 2 2 3 2 3 3 5 5 7 6 8 4 2 4 6 9 12 13 14 13 11 13 15 10 6 3 5 4 4 6 7 8 5 1 3 4 2 3 5 4 5 5 5 4 3 1 1 2 3 3 4 4 5
14 4 3 3 3 5 5 2 6 18 12 7 3 3 2 0 3 3 4 2 2 4 5 6 7 8 8 9 2 4 4 7 6 4 5 7 4 3 4 4 5 4 4 2 4 8 5 4 5 6 10 12 13 15 13 8 2 3 3 4 5 5 5 4 4 6 8 7 2 1 4 6 8 8 4 2 2 2 2 2 2 3 3 4 4 4 5
3 6 5 4 6 4 1 6 20 13 4 4 1 3 3 3 5 3 3 3 2 1 3 8 7 9 15 13 11 9 4 7 9 9 6 3 2 3 1 1 2 3 4 6 2 3 5 6 5 6 9 8 13 13 8 7 5 3 3 5 6 7 5 5 4 4 5 5 5 4 5 4 4 3 3 2 2 3 3 3 3 3 3 4 4 5 6
3 2 2 4 2 1 1 6 2 3 3 3 1 0 2 2 3 1 3 6 5 3 1 3 7 7 7 7 7 9 5 2 1 2 4 5 2 5 2 3 1 2 3 4 1 3 1 0 2 5 10 8 12 5 5 4 4 4 4 4 5 5 6 5 4 4 4 5 5 4 4 4 3 2 2 2 3 5 6 4 5 4 4 4 5 6 7
6 5 3 4 2 3 4 1 2 2 1 1 3 4 4 2 2 0 3 7 6 3 2 5 9 13 13 15 11 6 1 0 2 1 3 4 4 4 3 0 1 4 4 2 3 1 2 4 3 6 5 8 5 3 6 7 5 7 6 5 6 5 5 5 6 4 4 4 4 3 1 1 1 1 2 3 4 4 4 5 6 6 6 6 5 6 7
9 7 5 4 2 2 1 3 3 2 4 2 2 2 3 3 5 5 3 1 2 2 2 3 1 4 5 3 2 1 3 3 3 1 2 4 2 2 2 1 2 3 4 2 1 2 3 5 5 12 6 5 2 4 2 4 6 5 6 5 5 4 5 5 5 4 2 3 1 1 1 1 3 3 3 2 3 5 6 6 6 7 6 6 6 6 6
2 1 2 1 2 3 3 6 2 3 3 2 6 8 5 3 3 3 2 4 2 2 5 9 8 11 9 3 5 3 2 1 3 2 0 0 3 3 3 4 5 1 3 0 2 5 5 4 10 8 1 0 1 3 4 5 6 6 6 5 5 5 5 5 4 4 2 2 2 1 1 1 3 4 2 3 5 7 8 7 6 6 6 5 6 6 7
5 1 2 2 3 3 3 4 2 3 7 6 4 4 6 11 8 7 8 4 6 8 11 8 9 11 8 2 4 1 2 3 1 4 4 4 2 2 3 3 2 1 3 3 1 2 1 8 7 4 6 6 5 5 5 5 5 6 7 6 4 4 4 4 3 3 1 1 1 1 3 4 3 5 4 6 6 6 6 8 6 5 5 6 6 7 7
5 5 3 3 4 3 4 2 2 3 2 3 5 4 4 6 5 8 4 3 4 2 11 11 9 7 5 1 6 4 2 3 3 3 2 2 4 5 2 1 2 2 1 0 2 8 11 11 6 9 4 4 9 7 7 6 7 6 9 7 6 5 4 3 3 2 1 2 2 4 4 4 4 5 6 5 4 5 5 6 6 6 6 6 8 8 8
2 1 2 1 2 2 2 5 5 4 3 3 2 5 7 6 4 2 2 3 4 3 5 4 4 4 9 3 3 2 1 0 3 2 3 2 4 1 2 3 3 4 5 6 6 6 6 8 7 2 3 6 10 9 8 7 6 6 5 6 6 4 3 3 2 2 2 2 3 4 4 5 5 5 4 5 5 5 6 6 7 6 6 8 8 7 7
5 1 2 3 4 3 7 6 2 2 1 1 1 1 2 1 3 3 2 0 4 8 10 8 6 3 3 2 2 4 3 1 2 2 2 2 2 3 2 1 3 2 3 5 11 5 8 6 2 5 3 6 9 12 9 8 6 6 6 6 4 4 3 2 2 3 3 3 5 5 5 4 4 4 4 6 5 6 5 6 7 6 6 7 7 8 8
2 3 4 3 1 2 1 2 5 7 3 0 1 1 3 5 4 3 1 1 6 8 6 8 5 5 2 2 3 3 3 2 4 4 3 1 4 5 4 5 3 4 5 6 8 8 6 1 3 6 7 8 6 7 7 8 8 8 7 6 4 4 3 3 3 4 3 4 4 5 5 4 3 4 4 5 6 7 5 5 6 7 7 8 8 8 8
3 1 2 3 1 1 1 1 1 3 1 2 0 3 2 3 4 3 3 5 3 7 3 4 2 3 2 3 1 1 1 2 2 1 3 5 4 2 3 2 4 7 5 5 6 2 1 3 5 7 7 8 8 9 9 7 5 5 5 4 3 3 3 4 4 4 4 4 4 5 5 4 3 3 5 6 6 5 6 8 9 9 9 8 8 8 8
2 2 1 1 1 1 4 5 8 6 4 6 4 3 3 6 5 6 1 3 7 6 3 4 4 3 3 1 2 3 3 3 3 5 5 4 2 3 6 9 8 8 6 0 0 1 4 4 4 5 7 7 6 7 7 7 5 6 4 4 3 2 2 3 4 4 5 4 3 3 4 4 4 4 4 4 5 5 7 9 10 8 8 7 6 7 8
2 2 2 1 1 2 1 2 2 2 2 2 3 1 1 1 1 1 1 3 8 12 9 3 4 3 3 6 4 2 1 3 2 3 1 3 3 4 5 9 11 3 2 4 3 3 3 4 3 6 7 8 7 6 5 5 5 3 3 4 3 3 2 3 3 3 3 4 4 4 5 5 4 4 3 4 5 4 6 8 8 5 4 4 5 7 8
Wind_Direction
157 149 158 148 176 155 38 19 21 40 17 52 8 181 173 207 188 61 339 174 170 165 204 200 201 217 242 51 319 123 290 190 273 109 239 229 235 99 229 219 237 256 247 243 248 206 250 212 238 216 232 248 279 353 328 233 291 34 282 353 267 75 250 248 253 261 267 271 136 75 66 191 242 225 227 320 253 267 274 271 330 290 288 270 254 247 237
160 134 169 189 178 170 101 48 28 45 57 105 217 171 175 143 149 146 358 198 189 175 198 206 208 223 239 238 244 191 177 114 61 174 232 183 169 213 205 0 232 262 46 115 241 187 253 252 250 263 255 250 111 351 30 335 77 301 284 278 328 299 253 265 297 278 261 244 236 139 39 78 227 305 308 258 256 259 275 285 101 260 216 243 255 259 258
199 197 212 207 203 217 115 89 9 33 41 133 226 167 128 114 3 316 301 6 218 208 218 217 207 214 225 229 238 242 244 230 246 235 243 212 212 140 234 239 159 218 141 228 199 186 236 286 241 205 263 235 93 344 48 12 117 338 41 115 178 255 279 308 288 289 284 278 267 277 274 26 7 308 270 233 290 304 303 269 265 266 180 217 240 256 264
197 197 204 209 221 187 184 132 303 65 42 82 60 175 123 211 155 217 53 30 357 290 14 20 217 217 224 230 243 246 250 251 149 205 244 226 218 233 249 45 189 237 220 234 246 248 198 204 248 228 229 187 307 197 336 72 138 164 136 144 158 227 225 210 246 262 267 272 288 311 247 282 278 270 288 289 288 272 257 265 259 259 283 280 278 286 286
212 208 202 204 210 204 190 219 107 156 135 119 113 30 233 304 143 163 191 42 280 225 62 179 206 212 209 227 218 239 241 250 270 187 240 238 214 225 230 211 203 225 225 241 259 256 255 238 251 252 262 247 96 22 5 25 31 227 255 196 109 207 249 240 246 250 259 268 270 276 276 274 275 278 274 277 276 275 274 260 263 291 305 275 247 269 273
231 235 221 217 220 182 167 165 176 197 183 159 138 281 273 156 280 73 321 206 197 192 240 197 209 204 196 232 325 248 243 208 226 67 243 74 266 204 335 211 221 237 232 227 250 195 241 212 240 243 236 258 209 199 109 94 330 332 185 282 217 256 262 253 250 255 258 264 272 279 284 275 273 270 272 272 273 271 263 263 273 276 261 275 290 288 284
211 221 223 216 213 210 195 190 201 163 158 106 108 135 292 69 13 57 319 188 348 264 47 90 192 219 194 216 227 248 242 239 218 192 88 102 307 209 235 239 244 250 278 257 245 246 262 253 224 234 14 346 5 275 281 153 32 25 356 300 180 233 254 257 270 272 271 275 274 277 274 277 270 263 266 268 267 265 269 275 275 266 266 270 273 274 273
223 213 222 229 229 222 207 197 158 131 106 74 84 18 172 186 155 167 53 67 78 35 52 97 119 216 198 222 218 220 235 242 222 42 231 257 248 86 237 239 56 245 71 146 244 240 265 288 276 235 117 281 178 258 251 263 75 71 291 329 284 253 266 90 120 261 252 242 252 252 251 263 267 266 264 261 259 263 267 270 267 268 263 262 264 264 266
221 229 225 222 225 219 222 194 166 161 124 29 83 85 26 25 28 350 132 135 157 90 71 133 159 221 230 239 245 239 233 251 245 248 27 270 257 138 236 87 104 142 172 219 247 272 235 207 252 152 157 251 15 290 310 103 257 339 171 267 309 317 270 351 12 289 272 272 280 282 293 289 280 277 267 261 260 266 252 253 248 251 254 256 261 261 266
223 221 224 229 230 223 216 213 186 184 132 105 103 114 184 84 283 122 355 103 148 133 117 132 121 223 214 211 238 250 329 31 103 225 102 46 60 88 103 58 73 245 265 265 235 188 137 122 133 119 315 269 275 261 251 250 207 232 172 238 201 234 229 307 288 281 252 258 269 294 338 298 275 243 247 253 252 241 251 250 255 253 262 269 258 267 359
222 222 226 230 225 218 216 213 204 174 142 164 127 173 174 175 137 93 359 134 285 156 152 210 196 316 98 13 155 74 110 32 42 219 194 102 97 72 77 69 81 267 241 61 109 147 181 197 213 210 217 227 231 231 235 236 218 210 187 210 214 208 214 246 219 259 267 279 304 67 278 262 250 293 240 225 250 258 265 259 255 265 243 273 339 3 133
219 217 218 222 226 221 211 209 205 185 186 179 120 146 181 124 77 64 146 174 185 135 201 198 194 201 160 95 95 127 138 109 97 23 189 117 179 76 124 201 209 248 86 99 131 159 240 284 265 274 241 244 243 241 238 237 231 211 212 221 233 235 245 253 252 255 267 259 76 271 238 244 334 67 321 351 338 262 254 267 269 262 146 187 208 157 165
213 213 215 213 213 214 214 211 208 188 183 149 166 184 163 243 110 149 146 161 185 170 178 226 92 131 122 122 123 186 116 114 119 146 84 241 251 197 217 205 230 250 97 141 124 184 253 280 262 237 246 233 235 237 240 239 240 228 220 218 223 233 237 249 235 247 311 206 225 246 250 81 297 290 214 156 265 253 271 274 258 205 203 202 219 202 167
243 232 223 220 216 216 217 217 210 187 181 159 179 177 135 186 147 152 162 145 217 175 193 96 155 158 171 194 182 167 118 228 177 178 250 212 212 239 240 216 280 68 177 112 109 178 274 235 281 291 258 126 271 251 234 235 234 233 227 222 221 231 248 218 262 214 242 239 238 239 314 314 289 280 253 166 247 213 205 269 297 163 201 189 199 186 178
231 230 231 234 237 231 224 227 235 212 183 175 158 135 163 191 147 147 166 101 178 173 190 202 199 197 193 193 180 201 217 224 214 239 174 34 228 234 219 75 37 143 123 187 125 74 191 85 308 261 305 230 243 244 4 304 39 35 308 268 227 223 226 229 235 267 225 239 259 274 265 254 278 132 275 169 274 46 321 84 283 139 172 152 174 188 221
229 230 230 228 227 228 227 226 223 229 206 179 146 172 186 173 136 107 154 148 156 247 227 204 147 140 161 194 191 185 195 180 192 176 227 204 228 280 148 96 280 149 103 78 74 93 179 165 230 162 240 213 264 64 280 56 317 117 29 344 195 230 230 230 234 251 253 241 236 243 251 256 98 242 197 220 130 150 239 151 280 136 171 210 161 244 243
234 233 232 229 227 226 227 227 226 221 219 188 181 170 193 174 169 178 160 169 197 216 43 172 164 116 110 117 134 206 204 198 178 173 214 219 190 291 308 353 352 157 159 100 196 128 87 94 23 271 319 147 99 242 352 345 254 300 122 72 74 146 202 194 228 232 230 243 247 251 253 260 258 219 237 182 117 165 230 294 303 99 225 194 186 224 249
238 234 233 233 231 228 226 227 225 224 223 202 178 192 195 180 191 153 180 198 207 251 197 165 163 172 188 175 173 144 105 120 87 112 228 72 46 207 216 48 137 310 188 140 184 136 205 152 205 223 232 211 164 339 249 111 153 211 167 141 167 157 262 202 217 228 234 235 249 260 263 251 246 243 220 126 177 175 255 257 285 179 214 206 201 229 242
238 236 234 231 234 232 229 229 226 227 225 216 183 188 215 177 187 180 165 193 204 236 170 174 180 180 142 81 119 149 186 165 154 151 172 109 221 203 148 218 182 172 169 177 139 181 204 220 62 163 201 244 121 212 65 116 222 39 170 236 196 226 151 277 231 226 233 236 248 247 268 253 251 250 116 138 129 219 251 282 131 196 217 223 212 230 243
240 238 234 233 234 233 229 228 229 228 224 222 190 202 178 176 184 187 185 199 205 237 209 177 184 209 195 187 173 161 135 133 198 180 174 190 120 103 124 182 243 94 62 140 199 190 157 219 187 157 221 226 245 129 3 235 72 180 197 225 228 208 160 229 217 199 243 244 254 262 265 101 173 135 75 193 211 266 82 239 211 189 239 242 224 225 246
243 246 243 238 234 234 234 230 228 230 226 226 208 193 208 190 191 199 197 193 208 237 242 182 195 211 207 218 207 190 167 190 181 201 208 176 155 129 180 220 178 148 188 170 186 200 171 206 159 193 241 193 224 124 211 151 300 260 180 232 255 207 254 246 244 165 249 231 216 218 247 264 153 177 221 185 220 331 315 324 306 303 288 256 277 256 249
239 242 241 242 239 231 230 229 229 228 228 227 218 179 219 184 186 197 206 189 206 223 296 182 196 214 216 222 213 201 207 212 201 179 163 189 194 199 210 124 174 164 177 119 68 34 322 145 48 132 212 204 296 219 154 171 246 186 342 100 269 178 216 224 258 173 186 239 259 178 203 205 172 211 250 282 274 256 257 263 266 279 287 264 265 282 284
238 239 239 238 240 240 232 230 226 227 227 227 221 180 217 154 189 188 144 194 250 306 217 228 205 267 294 255 235 217 225 224 218 202 189 203 212 213 205 193 226 161 161 197 194 195 167 148 203 168 77 215 196 200 256 222 263 119 219 196 246 242 240 42 353 246 252 269 260 260 256 253 248 222 227 257 266 273 275 265 272 253 262 270 276 286 283
242 240 240 241 240 239 239 236 232 226 223 222 218 171 199 180 173 123 144 195 194 237 247 231 235 226 215 225 217 211 225 226 221 215 210 207 227 215 212 234 105 119 217 218 289 153 162 157 209 158 225 206 126 201 201 225 224 223 250 258 223 245 221 195 237 262 273 265 256 229 249 264 261 263 248 226 229 255 267 262 253 268 278 277 253 255 268
243 242 238 239 239 237 237 238 236 232 230 229 224 195 146 144 169 168 163 187 203 196 230 194 219 229 223 216 215 219 219 217 203 215 213 208 211 213 223 208 184 199 218 204 127 94 106 177 211 192 226 215 160 230 208 235 249 159 226 242 249 262 188 218 236 246 238 256 262 264 259 252 257 263 269 265 259 248 244 244 259 274 284 290 273 182 246
245 243 241 237 239 239 238 238 240 237 234 232 224 178 190 191 170 179 182 203 102 169 228 238 256 72 177 192 211 218 199 199 202 211 215 212 212 214 227 180 208 212 219 147 166 195 201 221 215 219 220 242 173 228 221 199 244 163 206 241 228 208 103 215 182 231 242 252 258 262 266 269 266 252 241 245 255 264 265 263 252 241 233 131 108 85 113
244 243 247 246 243 241 237 235 231 231 229 230 231 201 201 178 167 177 182 179 156 263 214 237 216 274 190 212 196 95 158 190 199 212 221 224 226 221 226 233 227 202 206 186 200 200 212 220 211 230 208 231 198 227 238 221 212 206 221 244 232 215 237 188 154 252 249 245 249 237 250 267 263 246 233 240 244 252 259 222 183 194 202 166 174 155 123
248 245 244 242 238 239 239 242 244 239 237 234 231 176 174 180 193 196 191 178 185 212 137 176 221 229 84 279 224 183 183 184 193 202 210 217 220 221 223 227 229 199 179 185 205 203 211 211 225 209 211 220 224 230 214 244 241 235 236 242 208 224 229 209 224 228 248 248 243 229 235 257 264 275 248 169 166 200 232 239 198 163 157 153 192 200 182
247 245 244 243 242 246 243 236 235 235 232 230 111 116 184 217 204 200 196 194 204 240 270 250 77 81 229 235 78 181 190 177 188 200 207 215 213 216 218 216 216 201 191 196 214 200 204 220 200 185 199 166 192 234 206 212 206 219 229 234 225 228 227 222 230 243 250 256 262 249 226 243 260 271 134 158 168 204 220 150 120 147 151 145 159 189 214
246 244 244 244 242 236 238 236 236 241 236 198 94 129 180 232 211 206 193 187 188 175 204 197 228 237 30 56 225 177 162 186 198 199 206 210 211 212 214 215 221 209 203 207 206 222 209 221 215 215 201 149 198 199 212 215 227 232 239 240 236 232 218 231 237 238 248 250 252 254 256 259 265 47 103 135 128 212 190 166 154 145 133 124 186 223 237
251 247 242 243 244 244 241 240 234 233 233 137 155 151 177 222 204 189 190 186 180 174 196 197 227 72 310 232 152 185 176 180 195 201 208 205 207 207 213 214 224 198 206 215 217 230 218 220 213 222 196 184 195 201 201 201 233 237 241 235 236 236 233 234 229 233 243 252 258 265 285 250 123 93 188 170 151 142 129 128 118 107 107 140 222 267 269
245 248 249 246 242 243 244 242 236 229 213 174 193 198 196 215 121 159 181 180 155 156 162 194 207 161 241 264 206 305 197 189 176 184 210 198 225 217 222 199 219 202 209 220 218 233 216 227 225 226 207 199 204 225 210 223 230 241 249 234 223 231 233 235 236 238 239 246 260 272 267 255 168 210 238 133 138 121 124 125 117 110 115 220 314 278 275
243 246 249 251 248 244 241 242 241 232 204 221 237 314 311 299 163 160 169 143 147 181 173 192 203 161 197 228 60 291 146 107 186 185 223 190 217 181 218 198 216 221 205 222 202 235 193 206 226 240 229 173 202 214 219 210 223 237 245 245 244 236 244 245 247 245 245 201 179 232 247 263 161 93 91 125 119 135 131 128 105 90 105 125 198 191 182
246 245 245 248 251 248 247 246 246 247 232 206 176 223 207 164 167 152 139 140 142 151 164 190 188 188 202 58 77 180 162 171 193 175 212 177 190 179 199 172 198 217 191 207 189 213 224 221 229 237 90 206 207 208 226 227 233 243 248 248 247 249 245 249 242 221 203 153 354 338 25 78 98 114 118 129 134 114 112 98 102 89 160 185 204 201 265
248 246 244 246 251 254 249 246 239 210 197 212 232 232 161 166 163 156 148 154 134 209 167 224 179 197 183 165 220 190 168 144 173 184 202 171 154 190 179 179 169 189 210 154 228 213 224 216 208 221 222 194 219 231 236 238 233 236 241 244 244 249 256 265 246 203 122 105 92 109 102 124 133 168 170 154 144 150 135 134 127 130 204 226 265 255 255
245 244 246 243 246 249 252 253 230 201 186 203 220 164 171 174 162 170 176 167 158 169 180 201 177 203 177 206 208 181 137 171 116 124 170 113 0 194 197 184 225 203 117 175 223 203 225 157 145 236 208 214 221 220 233 218 229 238 240 241 244 240 234 240 252 105 99 81 100 115 127 156 198 183 145 155 147 135 143 159 180 176 209 236 233 281 298
240 243 240 244 250 161 224 225 159 198 220 158 149 168 171 163 149 148 175 229 262 4 182 174 190 201 191 203 71 184 147 184 152 129 151 167 191 182 170 188 217 159 169 217 209 220 226 177 204 231 220 224 233 218 226 236 240 245 249 251 240 171 161 85 110 120 100 80 84 160 163 202 196 175 166 180 170 140 157 228 211 261 253 258 273 267 287
247 243 236 177 150 206 226 211 195 172 130 123 123 126 165 158 175 157 132 210 216 151 240 163 216 178 91 167 197 160 149 196 126 154 181 204 154 228 201 218 213 188 224 215 223 176 106 176 214 220 237 229 242 245 238 237 243 250 265 123 138 134 116 119 134 124 115 140 262 223 243 270 246 213 189 193 170 195 213 205 259 245 256 264 274 296 307
241 212 174 189 166 208 198 224 181 150 127 123 104 128 195 144 150 189 188 164 177 209 186 191 200 160 169 190 150 138 189 162 166 166 173 185 152 234 160 198 207 182 249 198 247 123 225 206 215 221 241 237 241 239 229 223 136 66 73 83 111 123 128 141 172 173 195 218 249 130 180 203 213 218 188 160 200 221 225 229 244 257 260 273 282 287 281
141 194 182 152 211 205 87 163 149 131 118 140 204 151 197 186 184 209 127 165 205 236 155 216 187 183 183 183 159 194 179 164 170 195 174 155 164 188 182 112 244 168 227 210 215 125 204 223 205 224 246 227 236 236 201 180 155 98 95 103 101 104 100 105 99 64 83 84 90 82 63 68 43 85 136 171 202 243 247 236 248 255 253 261 267 279 275
192 120 165 200 186 166 179 124 21 36 113 130 107 323 128 194 198 171 140 215 196 218 187 175 144 178 189 186 171 190 178 138 359 95 141 179 155 88 123 186 118 175 233 212 178 95 105 3 241 219 237 226 235 209 128 107 117 103 92 96 96 99 104 99 83 72 84 81 78 76 73 69 95 110 165 192 212 226 250 255 260 248 257 270 272 273 284
188 178 161 103 98 122 105 58 139 102 7 185 151 196 182 205 69 19 197 188 201 167 243 185 181 178 187 182 188 159 193 149 131 140 137 198 175 155 193 237 299 187 228 187 85 83 104 237 221 243 236 232 223 76 164 151 133 123 118 109 108 106 104 104 102 58 70 95 105 86 80 98 117 207 216 211 235 252 267 273 276 282 272 269 269 275 281
124 103 92 101 128 190 132 177 193 156 170 156 117 208 165 160 199 174 206 205 324 119 223 47 333 62 358 54 31 316 163 161 147 141 148 183 119 91 152 179 119 212 213 51 88 95 205 226 235 243 227 217 151 166 124 119 115 116 114 114 108 113 111 114 115 115 110 118 117 125 208 181 250 242 237 221 257 269 261 248 253 263 266 268 263 264 265
58 87 101 141 142 231 146 222 152 94 201 168 166 198 159 181 201 145 158 199 157 206 190 160 189 160 188 195 158 136 116 136 145 87 58 174 111 176 150 193 201 221 58 62 158 204 224 236 236 247 226 271 202 172 134 132 134 115 109 103 101 112 118 114 120 114 113 86 53 44 38 280 274 281 271 240 226 240 256 263 254 255 259 267 261 257 261
149 204 123 135 194 193 119 226 117 176 204 202 186 191 171 204 193 180 195 185 169 190 182 196 169 186 173 170 44 318 130 169 137 130 195 137 151 185 152 212 133 67 158 207 194 281 6 263 247 244 241 225 171 156 149 141 144 135 132 118 124 120 132 131 125 108 114 70 303 264 247 247 246 254 241 240 237 231 244 267 277 272 263 258 262 267 268
186 171 161 167 204 195 169 216 136 211 256 165 194 184 183 206 167 201 215 100 155 138 167 180 174 140 109 280 143 179 113 119 113 190 139 123 142 206 169 61 95 135 206 131 207 214 228 238 227 225 214 154 140 156 137 135 109 121 130 146 156 134 121 130 138 139 165 212 221 222 243 241 237 250 258 255 252 257 256 260 254 257 259 265 267 266 270
174 150 116 163 195 210 118 194 206 201 172 191 211 196 195 197 191 175 141 151 149 139 83 72 113 147 140 160 87 17 47 107 141 188 104 142 178 136 87 145 199 181 193 220 219 237 247 245 233 136 145 144 133 140 140 136 138 137 128 123 131 147 149 143 165 181 221 211 236 246 248 248 245 248 265 285 279 266 262 258 261 255 249 256 262 264 268
201 159 139 177 205 161 187 213 117 61 341 187 204 190 249 304 133 197 244 202 141 130 131 128 118 111 76 298 75 163 144 192 105 244 159 178 61 67 150 131 222 224 194 202 231 218 236 240 184 151 154 115 148 138 139 140 148 146 140 141 142 146 157 164 176 220 207 219 229 234 241 249 250 254 253 266 271 272 271 273 271 269 262 264 261 259 258
111 137 183 193 233 198 280 25 143 182 197 238 264 216 133 152 197 136 151 248 155 153 154 142 160 116 161 144 136 147 190 197 149 199 90 124 162 193 160 211 173 249 241 198 234 231 234 103 122 120 131 134 137 135 129 138 138 148 153 155 165 168 154 188 226 241 237 243 239 243 253 265 268 275 277 289 290 286 281 274 272 268 260 256 261 261 265
94 62 38 97 98 346 214 105 66 256 345 345 146 195 189 151 138 187 195 141 135 122 114 83 101 85 163 126 161 157 189 179 158 137 115 188 184 188 104 205 215 205 230 210 216 235 134 151 126 126 142 136 131 133 137 136 140 140 146 146 131 147 181 208 228 230 236 241 247 251 256 265 275 272 278 280 282 293 295 288 278 270 267 255 246 250 253
346 71 115 355 135 194 131 163 181 200 219 221 206 224 196 193 163 168 210 154 151 126 96 152 168 124 149 96 142 154 220 135 124 191 177 193 135 144 201 224 226 217 227 37 26 151 155 148 147 134 138 147 144 144 127 139 141 137 135 138 152 145 198 209 232 238 235 230 246 284 293 278 266 271 281 296 290 291 293 285 273 259 260 265 244 240 246
105 126 189 161 108 75 320 297 40 126 172 166 144 211 139 132 319 201 251 167 166 171 182 149 121 140 146 189 199 152 54 62 187 101 138 246 159 159 207 214 231 227 154 172 169 141 132 112 130 150 147 146 153 149 136 127 134 140 159 181 171 190 199 227 234 261 291 312 303 281 279 276 281 283 290 281 284 291 272 270 282 278 254 246 259 248 239